Flag for U.S.A. Weather past 2 weeks in Costa Mesa, California, U.S.A.

Now
78 °F

Clear.


Feels Like: 80 °F
Forecast: 74 / 91 °F
Wind: No wind

Location: John Wayne Airport-Orange County Airport

Current Time: Sep 16, 2014 at 5:32:51 AM

Latest Report: Sep 16, 2014 at 4:53 AM


Visibility: 10 mi

Pressure: 29.74 "Hg

Humidity: 64%

Dew point: 65 °F

Location of Costa MesaLocation

Historic Weather in Costa Mesa — Graph

°F

Costa Mesa temperature yesterday

Maximum temperature yesterday: 96 °F (at 11:53 AM)
Minimum temperature yesterday: 76 °F (at 6:53 AM)
Average temperature yesterday: 85 °F

Past Weeks' High & Low Weather Summary

 TemperatureHumidityPressure
High96 °F (Sep 15, 11:53 AM)81% (Sep 12, 4:53 AM)29.92 "Hg (Sep 12, 4:53 AM)
Low69 °F (Sep 10, 3:53 AM)25% (Sep 10, 3:53 PM)29.67 "Hg (Sep 14, 4:53 PM)
Average79 °F60%29.80 "Hg
* Reported Sep 1 4:00 AM — Sep 16 3:53 AM, Costa Mesa, Weather by CustomWeather, © 2014

Note: Actual official high and low records may vary slightly from our data, if they occured in-between our weather recording intervals... More about our weather records

Advertising

Costa Mesa weather history for previous 24 hours

 ConditionsComfort  
Time TempWeatherWind HumidityBarometerVisibility
3:53 AM
Sep 16
79 °FClear.No wind62%29.75 "Hg10 mi
2:53 AM80 °FClear.No wind58%29.76 "Hg10 mi
1:53 AM80 °FClear.No wind56%29.77 "Hg10 mi
12:53 AM80 °FClear.5 mph56%29.78 "Hg10 mi
11:53 PM
Sep 15
80 °FClear.7 mph56%29.78 "Hg10 mi
10:53 PM80 °FClear.7 mph54%29.78 "Hg10 mi
9:53 PM80 °FClear.9 mph56%29.76 "Hg10 mi
8:53 PM82 °FClear.9 mph51%29.75 "Hg10 mi
7:53 PM83 °FPassing clouds.7 mph50%29.73 "Hg10 mi
6:53 PM86 °FPassing clouds.8 mph43%29.72 "Hg10 mi
5:53 PM93 °FPassing clouds.5 mph31%29.71 "Hg10 mi
4:53 PM94 °FPassing clouds.7 mph32%29.71 "Hg10 mi
3:53 PM96 °FScattered clouds.7 mph31%29.72 "Hg10 mi
2:53 PM94 °FPassing clouds.8 mph35%29.73 "Hg10 mi
1:53 PM93 °FPassing clouds.7 mph40%29.76 "Hg10 mi
12:53 PM92 °FPassing clouds.7 mph43%29.77 "Hg10 mi
11:53 AM96 °FPassing clouds.5 mph34%29.78 "Hg10 mi
10:53 AM91 °FPassing clouds.3 mph39%29.79 "Hg10 mi
9:53 AM87 °FSunny.No wind48%29.80 "Hg10 mi
8:53 AM82 °FSunny.5 mph56%29.79 "Hg10 mi
7:53 AM79 °FSunny.3 mph62%29.79 "Hg10 mi
6:53 AM76 °FClear.No wind69%29.78 "Hg10 mi
5:53 AM77 °FPassing clouds.No wind66%29.77 "Hg10 mi
Weather by CustomWeather, © 2014

See weather overviewHow to use our weather pages